Time,TemperatureF,DewpointF,PressureIn,WindDirection,WindDirectionDegrees,WindSpeedMPH,WindSpeedGustMPH,Humidity,HourlyPrecipIn,Conditions,Clouds,dailyrainin,SolarRadiationWatts/m^2,SoftwareType,DateUTC
2013-11-15 00:07:00,38.5,34.0,29.87,South,190,0.0,4.0,84,0.00,,,0.00,0,weatherlink.com 1.10,2013-11-15 06:07:00,
2013-11-15 00:22:00,38.8,34.0,29.87,SSW,192,0.0,3.0,84,0.00,,,0.00,0,weatherlink.com 1.10,2013-11-15 06:22:00,
2013-11-15 00:37:00,38.2,34.0,29.86,SSW,201,0.0,4.0,85,0.00,,,0.00,0,weatherlink.com 1.10,2013-11-15 06:37:00,
2013-11-15 00:52:00,38.1,34.0,29.86,SSW,200,0.0,4.0,85,0.00,,,0.00,0,weatherlink.com 1.10,2013-11-15 06:52:00,
2013-11-15 01:07:00,38.5,34.0,29.86,SSW,192,3.0,6.0,85,0.00,,,0.00,0,weatherlink.com 1.10,2013-11-15 07:07:00,
2013-11-15 01:22:00,38.8,34.0,29.85,South,182,0.0,5.0,84,0.00,,,0.00,0,weatherlink.com 1.10,2013-11-15 07:22:00,
2013-11-15 01:37:00,38.9,35.0,29.84,South,188,0.0,6.0,85,0.00,,,0.00,0,weatherlink.com 1.10,2013-11-15 07:37:00,
2013-11-15 01:52:00,38.8,35.0,29.84,South,191,0.0,3.0,85,0.00,,,0.00,0,weatherlink.com 1.10,2013-11-15 07:52:00,
2013-11-15 02:07:00,38.4,34.0,29.84,SSW,210,0.0,2.0,85,0.00,,,0.00,0,weatherlink.com 1.10,2013-11-15 08:07:00,
2013-11-15 02:22:00,38.2,34.0,29.84,SSW,200,3.0,4.0,86,0.00,,,0.00,0,weatherlink.com 1.10,2013-11-15 08:22:00,
2013-11-15 02:37:00,38.2,34.0,29.84,South,191,3.0,7.0,86,0.00,,,0.00,0,weatherlink.com 1.10,2013-11-15 08:37:00,
2013-11-15 02:52:00,37.5,34.0,29.84,South,186,4.0,4.0,87,0.00,,,0.00,0,weatherlink.com 1.10,2013-11-15 08:52:00,
2013-11-15 03:07:00,37.6,34.0,29.83,South,190,0.0,6.0,87,0.00,,,0.00,0,weatherlink.com 1.10,2013-11-15 09:07:00,
2013-11-15 03:22:00,37.5,34.0,29.83,South,178,3.0,7.0,87,0.00,,,0.00,0,weatherlink.com 1.10,2013-11-15 09:22:00,
2013-11-15 03:37:00,37.4,34.0,29.82,South,179,4.0,9.0,87,0.00,,,0.00,0,weatherlink.com 1.10,2013-11-15 09:37:00,
2013-11-15 03:52:00,37.1,34.0,29.82,South,183,0.0,5.0,87,0.00,,,0.00,0,weatherlink.com 1.10,2013-11-15 09:52:00,
2013-11-15 04:07:00,36.8,33.0,29.82,SSW,194,0.0,7.0,87,0.00,,,0.00,0,weatherlink.com 1.10,2013-11-15 10:07:00,
2013-11-15 04:22:00,37.2,34.0,29.81,South,174,4.0,10.0,88,0.00,,,0.00,0,weatherlink.com 1.10,2013-11-15 10:22:00,
2013-11-15 04:37:00,37.6,34.0,29.80,South,186,1.0,9.0,87,0.00,,,0.00,0,weatherlink.com 1.10,2013-11-15 10:37:00,
2013-11-15 04:52:00,36.5,33.0,29.80,South,180,0.0,10.0,88,0.00,,,0.00,0,weatherlink.com 1.10,2013-11-15 10:52:00,
2013-11-15 05:07:00,36.6,33.0,29.79,South,183,3.0,8.0,88,0.00,,,0.00,0,weatherlink.com 1.10,2013-11-15 11:07:00,
2013-11-15 05:22:00,36.5,33.0,29.80,South,184,2.0,8.0,88,0.00,,,0.00,0,weatherlink.com 1.10,2013-11-15 11:22:00,
2013-11-15 05:37:00,36.8,34.0,29.79,South,186,0.0,7.0,88,0.00,,,0.00,0,weatherlink.com 1.10,2013-11-15 11:37:00,
2013-11-15 05:52:00,37.2,34.0,29.77,South,181,0.0,4.0,88,0.00,,,0.00,0,weatherlink.com 1.10,2013-11-15 11:52:00,
2013-11-15 06:08:00,37.4,34.0,29.77,South,171,0.0,7.0,87,0.00,,,0.00,0,weatherlink.com 1.10,2013-11-15 12:08:00,
2013-11-15 06:22:00,36.7,34.0,29.75,SSE,165,3.0,7.0,88,0.00,,,0.00,0,weatherlink.com 1.10,2013-11-15 12:22:00,
2013-11-15 06:37:00,37.8,35.0,29.75,South,178,3.0,9.0,88,0.00,,,0.00,0,weatherlink.com 1.10,2013-11-15 12:37:00,
2013-11-15 06:52:00,38.3,35.0,29.75,South,179,3.0,7.0,87,0.00,,,0.00,0,weatherlink.com 1.10,2013-11-15 12:52:00,
2013-11-15 07:07:00,38.0,35.0,29.75,South,182,1.0,7.0,87,0.00,,,0.00,0,weatherlink.com 1.10,2013-11-15 13:07:00,
2013-11-15 07:22:00,38.0,35.0,29.75,South,184,2.0,8.0,87,0.00,,,0.00,5,weatherlink.com 1.10,2013-11-15 13:22:00,
2013-11-15 07:37:00,38.0,35.0,29.75,South,178,8.0,12.0,87,0.00,,,0.00,5,weatherlink.com 1.10,2013-11-15 13:37:00,
2013-11-15 07:53:00,38.0,35.0,29.75,South,178,7.0,14.0,87,0.00,,,0.00,19,weatherlink.com 1.10,2013-11-15 13:53:00,
2013-11-15 08:08:00,37.9,34.0,29.76,South,186,7.0,12.0,87,0.00,,,0.00,21,weatherlink.com 1.10,2013-11-15 14:08:00,
2013-11-15 08:23:00,38.6,35.0,29.77,South,186,8.0,10.0,86,0.00,,,0.00,84,weatherlink.com 1.10,2013-11-15 14:23:00,
2013-11-15 08:38:00,39.6,36.0,29.75,South,171,6.0,12.0,85,0.00,,,0.00,137,weatherlink.com 1.10,2013-11-15 14:38:00,
2013-11-15 08:53:00,40.7,36.0,29.75,South,186,10.0,17.0,84,0.00,,,0.00,186,weatherlink.com 1.10,2013-11-15 14:53:00,
2013-11-15 09:08:00,42.2,37.0,29.74,South,186,12.0,15.0,83,0.00,,,0.00,229,weatherlink.com 1.10,2013-11-15 15:08:00,
2013-11-15 09:23:00,43.6,38.0,29.73,South,179,7.0,16.0,81,0.00,,,0.00,265,weatherlink.com 1.10,2013-11-15 15:23:00,
2013-11-15 09:38:00,45.5,39.0,29.73,South,184,10.0,17.0,78,0.00,,,0.00,302,weatherlink.com 1.10,2013-11-15 15:38:00,
2013-11-15 09:53:00,47.1,40.0,29.72,South,177,10.0,22.0,75,0.00,,,0.00,338,weatherlink.com 1.10,2013-11-15 15:53:00,
2013-11-15 10:08:00,48.7,40.0,29.71,South,171,13.0,20.0,72,0.00,,,0.00,371,weatherlink.com 1.10,2013-11-15 16:08:00,
2013-11-15 10:23:00,49.6,40.0,29.70,South,184,21.0,23.0,70,0.00,,,0.00,401,weatherlink.com 1.10,2013-11-15 16:23:00,
2013-11-15 10:38:00,51.0,40.0,29.70,South,184,15.0,26.0,66,0.00,,,0.00,429,weatherlink.com 1.10,2013-11-15 16:38:00,
2013-11-15 10:53:00,51.9,39.0,29.70,South,179,16.0,28.0,62,0.00,,,0.00,452,weatherlink.com 1.10,2013-11-15 16:53:00,
2013-11-15 11:08:00,53.3,40.0,29.70,South,170,22.0,22.0,60,0.00,,,0.00,475,weatherlink.com 1.10,2013-11-15 17:08:00,
2013-11-15 11:23:00,53.8,39.0,29.68,SSE,147,17.0,22.0,58,0.00,,,0.00,492,weatherlink.com 1.10,2013-11-15 17:23:00,
2013-11-15 11:39:00,54.3,38.0,29.68,South,188,8.0,23.0,55,0.00,,,0.00,504,weatherlink.com 1.10,2013-11-15 17:39:00,
2013-11-15 11:54:00,54.8,38.0,29.66,South,183,13.0,22.0,54,0.00,,,0.00,515,weatherlink.com 1.10,2013-11-15 17:54:00,
2013-11-15 12:10:00,55.9,38.0,29.65,South,188,11.0,21.0,51,0.00,,,0.00,524,weatherlink.com 1.10,2013-11-15 18:10:00,
2013-11-15 12:24:00,56.6,38.0,29.63,South,182,15.0,20.0,50,0.00,,,0.00,527,weatherlink.com 1.10,2013-11-15 18:24:00,
2013-11-15 12:39:00,56.8,38.0,29.62,SSW,211,16.0,23.0,50,0.00,,,0.00,527,weatherlink.com 1.10,2013-11-15 18:39:00,
2013-11-15 12:54:00,57.1,38.0,29.61,South,182,13.0,25.0,49,0.00,,,0.00,524,weatherlink.com 1.10,2013-11-15 18:54:00,
2013-11-15 13:09:00,57.7,39.0,29.59,South,175,9.0,22.0,50,0.00,,,0.00,517,weatherlink.com 1.10,2013-11-15 19:09:00,
2013-11-15 13:24:00,59.0,38.0,29.58,South,189,13.0,23.0,46,0.00,,,0.00,508,weatherlink.com 1.10,2013-11-15 19:24:00,
2013-11-15 13:39:00,59.3,38.0,29.57,South,176,16.0,24.0,46,0.00,,,0.00,494,weatherlink.com 1.10,2013-11-15 19:39:00,
2013-11-15 13:54:00,59.3,38.0,29.57,SSE,166,12.0,21.0,46,0.00,,,0.00,476,weatherlink.com 1.10,2013-11-15 19:54:00,
2013-11-15 14:09:00,60.4,39.0,29.56,South,184,7.0,20.0,45,0.00,,,0.00,457,weatherlink.com 1.10,2013-11-15 20:09:00,
2013-11-15 14:24:00,60.0,38.0,29.55,South,181,9.0,18.0,45,0.00,,,0.00,431,weatherlink.com 1.10,2013-11-15 20:24:00,
2013-11-15 14:39:00,61.0,38.0,29.54,South,172,14.0,17.0,43,0.00,,,0.00,404,weatherlink.com 1.10,2013-11-15 20:39:00,
2013-11-15 14:54:00,61.6,39.0,29.53,South,176,9.0,15.0,44,0.00,,,0.00,378,weatherlink.com 1.10,2013-11-15 20:54:00,
2013-11-15 15:09:00,62.1,38.0,29.53,SSW,211,12.0,17.0,41,0.00,,,0.00,343,weatherlink.com 1.10,2013-11-15 21:09:00,
2013-11-15 15:24:00,61.1,38.0,29.52,South,188,4.0,16.0,43,0.00,,,0.00,223,weatherlink.com 1.10,2013-11-15 21:24:00,
2013-11-15 15:39:00,61.4,39.0,29.52,SSW,192,1.0,14.0,44,0.00,,,0.00,202,weatherlink.com 1.10,2013-11-15 21:39:00,
2013-11-15 15:54:00,62.4,38.0,29.52,SSE,156,1.0,6.0,40,0.00,,,0.00,183,weatherlink.com 1.10,2013-11-15 21:54:00,
2013-11-15 16:09:00,61.9,36.0,29.52,SSW,213,2.0,7.0,38,0.00,,,0.00,83,weatherlink.com 1.10,2013-11-15 22:09:00,
2013-11-15 16:24:00,61.2,37.0,29.52,SSW,193,0.0,5.0,41,0.00,,,0.00,149,weatherlink.com 1.10,2013-11-15 22:24:00,
2013-11-15 16:39:00,60.0,38.0,29.52,South,180,0.0,7.0,45,0.00,,,0.00,56,weatherlink.com 1.10,2013-11-15 22:39:00,
2013-11-15 16:54:00,58.8,37.0,29.52,SSW,195,0.0,5.0,45,0.00,,,0.00,33,weatherlink.com 1.10,2013-11-15 22:54:00,
2013-11-15 17:09:00,57.2,36.0,29.51,South,191,0.0,4.0,46,0.00,,,0.00,16,weatherlink.com 1.10,2013-11-15 23:09:00,
2013-11-15 17:24:00,56.7,36.0,29.51,South,187,0.0,3.0,46,0.00,,,0.00,5,weatherlink.com 1.10,2013-11-15 23:24:00,
2013-11-15 17:39:00,57.0,35.0,29.51,South,178,0.0,0.0,44,0.00,,,0.00,0,weatherlink.com 1.10,2013-11-15 23:39:00,
2013-11-15 17:54:00,56.5,35.0,29.51,South,172,0.0,2.0,44,0.00,,,0.00,0,weatherlink.com 1.10,2013-11-15 23:54:00,
2013-11-15 18:09:00,54.9,34.0,29.51,ESE,103,0.0,4.0,45,0.00,,,0.00,0,weatherlink.com 1.10,2013-11-16 00:09:00,
2013-11-15 18:24:00,51.0,34.0,29.51,ESE,117,0.0,4.0,53,0.00,,,0.00,0,weatherlink.com 1.10,2013-11-16 00:24:00,
2013-11-15 18:39:00,49.3,34.0,29.51,ESE,110,0.0,3.0,57,0.00,,,0.00,0,weatherlink.com 1.10,2013-11-16 00:39:00,
2013-11-15 18:54:00,48.2,36.0,29.50,ESE,104,0.0,4.0,62,0.00,,,0.00,0,weatherlink.com 1.10,2013-11-16 00:54:00,
2013-11-15 19:09:00,47.2,36.0,29.50,ESE,115,0.0,4.0,65,0.00,,,0.00,0,weatherlink.com 1.10,2013-11-16 01:09:00,
2013-11-15 19:25:00,46.6,36.0,29.50,ESE,117,0.0,3.0,66,0.00,,,0.00,0,weatherlink.com 1.10,2013-11-16 01:25:00,
2013-11-15 19:40:00,48.1,37.0,29.50,SE,139,2.0,6.0,65,0.00,,,0.00,0,weatherlink.com 1.10,2013-11-16 01:40:00,
2013-11-15 19:55:00,48.7,36.0,29.49,SE,130,4.0,4.0,62,0.00,,,0.00,0,weatherlink.com 1.10,2013-11-16 01:55:00,
2013-11-15 20:10:00,47.5,34.0,29.49,SE,139,0.0,5.0,61,0.00,,,0.00,0,weatherlink.com 1.10,2013-11-16 02:10:00,
2013-11-15 20:25:00,48.4,34.0,29.49,SSE,164,0.0,5.0,57,0.00,,,0.00,0,weatherlink.com 1.10,2013-11-16 02:25:00,
2013-11-15 20:40:00,47.7,32.0,29.48,SSE,161,0.0,4.0,56,0.00,,,0.00,0,weatherlink.com 1.10,2013-11-16 02:40:00,
2013-11-15 20:55:00,47.6,32.0,29.48,North,360,0.0,4.0,55,0.00,,,0.00,0,weatherlink.com 1.10,2013-11-16 02:55:00,
2013-11-15 21:10:00,45.8,32.0,29.47,ESE,123,0.0,5.0,58,0.00,,,0.00,0,weatherlink.com 1.10,2013-11-16 03:10:00,
2013-11-15 21:25:00,44.1,32.0,29.47,SE,135,1.0,5.0,62,0.00,,,0.00,0,weatherlink.com 1.10,2013-11-16 03:25:00,
2013-11-15 21:40:00,43.5,32.0,29.47,ESE,117,2.0,5.0,63,0.00,,,0.00,0,weatherlink.com 1.10,2013-11-16 03:40:00,
2013-11-15 21:55:00,42.9,31.0,29.47,SE,126,2.0,5.0,64,0.00,,,0.00,0,weatherlink.com 1.10,2013-11-16 03:55:00,
2013-11-15 22:10:00,41.3,31.0,29.45,ESE,107,0.0,3.0,68,0.00,,,0.00,0,weatherlink.com 1.10,2013-11-16 04:10:00,
2013-11-15 22:25:00,41.4,33.0,29.45,SE,134,4.0,7.0,72,0.00,,,0.00,0,weatherlink.com 1.10,2013-11-16 04:25:00,
2013-11-15 22:40:00,42.5,34.0,29.44,SE,138,7.0,10.0,72,0.00,,,0.00,0,weatherlink.com 1.10,2013-11-16 04:40:00,
2013-11-15 22:55:00,43.2,36.0,29.43,SSE,150,0.0,9.0,75,0.00,,,0.00,0,weatherlink.com 1.10,2013-11-16 04:55:00,
2013-11-15 23:10:00,43.6,37.0,29.43,South,173,0.0,6.0,76,0.00,,,0.00,0,weatherlink.com 1.10,2013-11-16 05:10:00,
2013-11-15 23:25:00,44.1,37.0,29.42,SSE,165,0.0,6.0,75,0.00,,,0.00,0,weatherlink.com 1.10,2013-11-16 05:25:00,
2013-11-15 23:40:00,43.6,37.0,29.42,SSE,156,4.0,9.0,77,0.00,,,0.00,0,weatherlink.com 1.10,2013-11-16 05:40:00,
2013-11-15 23:55:00,43.2,37.0,29.41,SSE,148,2.0,9.0,78,0.00,,,0.00,0,weatherlink.com 1.10,2013-11-16 05:55:00,